Location: Alphen aan den Rijn
(52.1277°N, 4.6689°E)
Time: 10:17:16
(UTC+01:00)

OTV 5 (USA 277) - Visible Passes

Search period start: 21 February 2018 00:00
Search period end: 03 March 2018 00:00
Orbit: 404 x 417 km, 43.0° (Epoch: 07 September)

Date Brightness Start Highest point End Pass type
(mag) Time Alt. Az. Time Alt. Az. Time Alt. Az.
22 Feb ? 06:43:51 10° S 06:44:58 11° SSE 06:46:07 10° SE visible
24 Feb ? 06:37:43 10° SSW 06:39:43 15° S 06:41:44 10° SE visible
25 Feb ? 05:47:48 12° S 05:48:52 14° SSE 05:50:35 10° SE visible
26 Feb ? 04:59:06 10° SE 04:59:06 10° SE 04:59:09 10° SE visible
26 Feb ? 06:32:17 10° SW 06:34:32 17° S 06:36:46 10° SE visible
27 Feb ? 05:43:07 16° S 05:43:39 16° S 05:45:49 10° SE visible
28 Feb ? 04:54:23 12° SE 04:54:23 12° SE 04:54:47 10° SE visible
28 Feb ? 06:27:14 10° SW 06:29:20 16° S 06:31:26 10° SSE visible
01 Mar ? 05:38:23 17° S 05:38:27 17° S 05:40:40 10° SE visible
02 Mar ? 04:49:40 11° SE 04:49:40 11° SE 04:49:48 10° SE visible
02 Mar ? 06:22:38 10° SW 06:24:06 12° SSW 06:25:34 10° S visible
